Weather History for KNSE - July, 2013

Change the Weather History Date:

Tuesday, July 9, 2013

  Actual Average Record
Temperature  
Mean Temperature 80 °F -  
Max Temperature 90 °F 86 °F 96 °F (2010)
Min Temperature 71 °F 70 °F 70 °F (2004)
Cooling Degree Days 15    
Growing Degree Days 30 (Base 50)    
Moisture  
Dew Point 71 °F    
Average Humidity 84    
Maximum Humidity 94    
Minimum Humidity 52    
Precipitation  
Precipitation 0.00 in - - ()
Sea Level Pressure  
Sea Level Pressure 30.13 in    
Wind  
Wind Speed 1 mph (WSW)    
Max Wind Speed 12 mph    
Max Gust Speed -    
Visibility 5 miles    
Events Fog    
Averages and records for this station are not official NWS values.
T = Trace of Precipitation, MM = Missing Value Source: NWS Daily Summary

Daily Weather History Graph

Daily Weather History Graph

Search for Another Location

Airport or City:

Trip Planner

Search our weather history database for the weather conditions in past years. The results will help you decide how hot, cold, wet, or windy it might be!

Date:

Astronomy

Jul. 09, 2013 Rise Set
Actual Time 5:52 AM CDT 7:53 PM CDT
Civil Twilight 5:25 AM CDT 8:21 PM CDT
Nautical Twilight 4:51 AM CDT 8:54 PM CDT
Astronomical Twilight 4:16 AM CDT 9:29 PM CDT
Moon 7:07 AM CDT (7/9) 8:41 PM CDT (7/9)
Length of Visible Light 14h 56m
Length of Day
14h 01m
New Moon, 2% of the Moon is Illuminated
Jul 9
New Moon
Jul 15
First Quarter
Jul 22
Full
Jul 29
Last Quarter
Aug 6
New

Hourly Weather History & Observations

Time (CDT) Temp. Heat Index Dew Point Humidity Pressure Visibility Wind Dir Wind Speed Gust Speed Precip Events Conditions
12:56 AM 75.0 °F - 72.0 °F 90% 30.11 in 3.0 mi Calm Calm - N/A   Overcast
1:11 AM 75.2 °F - 71.6 °F 89% 30.16 in 4.0 mi Calm Calm - N/A   Mostly Cloudy
1:16 AM 75.2 °F - 71.6 °F 89% 30.16 in 2.5 mi NE 3.5 mph - N/A   Mostly Cloudy
1:39 AM 73.4 °F - 71.6 °F 94% 30.14 in 1.0 mi Calm Calm - N/A   Mist
1:46 AM 73.4 °F - 71.6 °F 94% 30.14 in 0.8 mi Calm Calm - N/A   Mist
1:56 AM 73.9 °F - 71.1 °F 91% 30.10 in 0.5 mi Calm Calm - N/A Fog Fog
2:47 AM 73.4 °F - 71.6 °F 94% 30.14 in 0.2 mi Calm Calm - N/A Fog Fog
2:56 AM 73.0 °F - 70.0 °F 90% 30.09 in 0.5 mi Calm Calm - N/A Fog Fog
3:02 AM 73.4 °F - 69.8 °F 88% 30.14 in 0.2 mi Calm Calm - N/A Fog Fog
3:11 AM 73.4 °F - 69.8 °F 88% 30.14 in 0.2 mi Calm Calm - N/A Fog Fog
3:37 AM 71.6 °F - 69.8 °F 94% 30.14 in 0.5 mi Calm Calm - N/A Fog Fog
3:46 AM 73.4 °F - 69.8 °F 88% 30.14 in 0.2 mi Calm Calm - N/A Fog Fog
3:56 AM 73.0 °F - 70.0 °F 90% 30.10 in 0.2 mi Calm Calm - N/A Fog Fog
4:07 AM 71.6 °F - 69.8 °F 94% 30.15 in 0.5 mi Calm Calm - N/A Fog Fog
4:16 AM 71.6 °F - 69.8 °F 94% 30.14 in 0.2 mi Calm Calm - N/A Fog Fog
4:33 AM 71.6 °F - 69.8 °F 94% 30.15 in 0.5 mi Calm Calm - N/A Fog Fog
4:48 AM 71.6 °F - 69.8 °F 94% 30.15 in 0.8 mi Calm Calm - N/A   Mist
4:56 AM 72.0 °F - 69.1 °F 91% 30.12 in 0.5 mi Calm Calm - N/A Fog Fog
5:11 AM 71.6 °F - 69.8 °F 94% 30.16 in 0.2 mi Calm Calm - N/A Fog Fog
5:18 AM 71.6 °F - 69.8 °F 94% 30.16 in 0.8 mi Calm Calm - N/A   Mist
5:27 AM 71.6 °F - 68.0 °F 88% 30.16 in 1.0 mi Calm Calm - N/A   Mist
5:43 AM 71.6 °F - 69.8 °F 94% 30.16 in 2.0 mi Calm Calm - N/A   Mostly Cloudy
5:52 AM 71.6 °F - 69.8 °F 94% 30.16 in 1.0 mi Calm Calm - N/A   Mostly Cloudy
5:54 AM 71.6 °F - 69.8 °F 94% 30.16 in 0.8 mi Calm Calm - N/A   Mist
5:56 AM 71.1 °F - 69.1 °F 93% 30.12 in 0.8 mi Calm Calm - N/A   Mist
6:56 AM 73.0 °F - 70.0 °F 90% 30.13 in 3.0 mi Calm Calm - N/A   Mostly Cloudy
7:56 AM 75.0 °F - 72.0 °F 90% 30.15 in 10.0 mi Calm Calm - N/A   Overcast
8:26 AM 75.2 °F - 73.4 °F 94% 30.20 in 3.0 mi Calm Calm - N/A   Overcast
8:56 AM 77.0 °F - 73.0 °F 88% 30.16 in 7.0 mi Calm Calm - N/A   Overcast
9:21 AM 78.8 °F - 73.4 °F 83% 30.21 in 9.0 mi Calm Calm - N/A   Overcast
9:56 AM 81.0 °F 85.8 °F 73.0 °F 77% 30.16 in 10.0 mi Variable 3.5 mph - N/A   Mostly Cloudy
10:56 AM 82.0 °F 86.3 °F 71.1 °F 69% 30.17 in 10.0 mi Calm Calm - N/A   Mostly Cloudy
11:56 AM 84.9 °F 90.1 °F 71.1 °F 63% 30.15 in 10.0 mi Variable 3.5 mph - N/A   Mostly Cloudy
12:56 PM 88.0 °F 94.7 °F 72.0 °F 59% 30.13 in 10.0 mi Calm Calm - N/A   Mostly Cloudy
1:56 PM 89.1 °F 93.7 °F 69.1 °F 52% 30.11 in 10.0 mi Calm Calm - N/A   Mostly Cloudy
2:56 PM 89.1 °F 94.1 °F 70.0 °F 53% 30.09 in 10.0 mi Variable 3.5 mph - N/A   Mostly Cloudy
3:56 PM 88.0 °F 92.9 °F 70.0 °F 55% 30.07 in 10.0 mi Variable 3.5 mph - N/A   Mostly Cloudy
4:56 PM 87.1 °F 93.6 °F 72.0 °F 61% 30.06 in 10.0 mi SSW 11.5 mph - N/A   Mostly Cloudy
5:56 PM 84.9 °F 91.4 °F 73.0 °F 67% 30.05 in 10.0 mi SSW 10.4 mph - N/A   Mostly Cloudy
6:56 PM 82.9 °F 88.0 °F 72.0 °F 69% 30.05 in 10.0 mi SSW 8.1 mph - N/A   Mostly Cloudy
7:56 PM 81.0 °F 85.2 °F 72.0 °F 74% 30.06 in 10.0 mi SSW 5.8 mph - N/A   Mostly Cloudy
8:56 PM 79.0 °F - 72.0 °F 79% 30.07 in 10.0 mi WSW 4.6 mph - N/A   Mostly Cloudy
9:56 PM 78.1 °F - 71.1 °F 79% 30.09 in 10.0 mi West 5.8 mph - N/A   Mostly Cloudy
10:56 PM 75.9 °F - 71.1 °F 85% 30.08 in 10.0 mi WNW 4.6 mph - N/A   Mostly Cloudy
11:56 PM 75.9 °F - 71.1 °F 85% 30.07 in 10.0 mi Calm Calm - N/A   Mostly Cloudy